GFSFLT1_700_rhum_195.txt.gz
RH
35 33 54 59 23 21 21 21 20 22 48 41 35 31 27 28 28 27 28 32 46 74 80 73 51 47 34 23 24 25 26 27
40 37 24 26 26 22 21 21 20 22 45 47 38 35 29 28 27 26 25 28 35 54 62 75 60 51 40 25 24 26 27 28
42 44 32 26 25 22 23 22 21 21 34 44 45 39 36 34 32 30 28 33 37 43 51 70 60 55 49 29 26 27 28 30
44 43 48 36 29 25 22 23 23 22 23 43 48 46 45 39 34 35 37 39 39 40 42 59 62 60 60 40 28 30 29 33
44 43 47 53 31 29 25 23 25 25 22 33 45 40 40 33 32 37 42 42 42 48 58 64 65 63 59 48 30 33 32 38
45 45 46 54 51 36 32 29 28 27 22 24 41 42 43 46 46 41 44 50 51 55 55 62 66 67 69 58 36 35 36 51
43 50 54 61 63 45 35 37 33 27 23 22 23 26 34 42 50 49 53 53 52 54 69 75 78 68 68 62 38 36 48 58
40 38 41 56 65 41 33 37 39 35 28 23 24 26 29 36 52 62 60 61 58 52 68 77 71 70 66 75 43 41 70 59
35 39 43 42 52 41 40 34 37 40 41 43 44 45 44 46 51 67 73 76 74 74 72 70 66 78 90 74 53 68 68 58
37 45 46 43 40 39 41 41 41 40 40 44 45 45 46 54 54 74 80 89 98 82 75 75 77 96 96 88 72 87 68 88
42 40 41 43 45 43 47 45 46 46 45 46 46 46 47 55 56 77 99 100 99 93 79 87 99 97 96 95 97 95 90 74
49 47 47 48 51 50 48 48 47 47 46 47 48 50 55 62 67 82 99 100 99 100 86 95 100 100 99 99 97 95 90 78
53 56 53 53 52 51 50 50 47 45 45 46 48 53 56 58 67 86 100 100 100 100 95 96 100 99 99 97 83 87 91 93
67 65 63 62 61 58 58 61 59 55 53 52 54 54 60 64 67 84 100 100 100 100 100 100 100 99 96 95 88 95 97 82
73 70 68 68 68 70 72 73 73 71 67 64 62 66 70 72 81 93 100 99 100 100 99 100 99 98 98 96 96 98 84 83
69 70 60 65 60 59 62 58 56 60 75 78 58 55 66 74 73 87 99 100 100 99 98 98 98 98 98 98 97 94 84 92
65 53 50 46 49 49 50 46 50 64 70 55 46 53 80 80 79 76 61 84 98 97 98 98 99 98 99 98 96 95 92 94
79 62 48 43 39 36 35 38 40 44 48 51 53 59 75 88 87 93 100 97 91 96 98 98 98 98 98 98 97 95 93 96
47 42 40 39 34 32 31 26 24 25 27 26 28 35 38 43 58 82 96 98 99 100 99 100 98 98 98 97 98 98 95 95

GFSFLT1_700_rhum_198.txt.gz
RH
33 33 34 35 41 44 34 22 20 20 20 21 24 43 36 34 28 24 34 43 41 71 60 57 83 84 67 53 54 42 25 22
33 34 34 34 40 44 40 29 21 21 20 21 20 29 43 36 33 26 25 31 34 49 48 47 91 84 73 55 51 46 29 23
34 35 36 37 41 50 52 30 26 22 20 21 20 20 42 42 36 32 25 27 32 38 41 40 82 80 76 62 56 46 30 25
37 38 40 39 41 46 53 32 27 24 21 20 21 22 44 48 40 36 31 28 29 34 37 42 69 68 76 65 54 50 41 27
36 36 38 41 42 42 43 40 31 30 26 22 22 22 27 45 44 38 36 32 34 37 37 43 52 57 79 65 52 52 47 41
34 36 38 43 44 44 44 45 43 37 30 29 26 23 24 42 52 46 41 37 39 44 41 42 55 59 62 63 54 54 47 42
35 38 39 43 44 46 46 46 48 47 42 34 34 35 28 29 50 56 49 47 48 50 49 51 57 56 64 69 61 51 48 38
38 40 41 45 46 47 47 50 54 51 42 34 39 40 35 30 37 59 59 54 55 58 59 58 55 62 73 74 67 55 51 41
40 41 37 41 50 50 53 56 55 46 40 35 40 37 32 33 27 35 49 56 63 66 72 71 72 80 84 79 76 60 46 42
44 43 37 38 44 48 58 58 53 40 39 37 40 46 45 37 34 31 31 40 56 71 80 82 88 86 88 88 84 70 58 45
41 37 34 30 38 48 58 51 46 42 43 47 49 50 48 52 52 49 47 47 56 80 98 100 97 95 98 89 85 70 64 51
51 43 42 38 42 48 46 43 42 46 46 49 50 54 53 59 71 54 50 46 52 77 97 100 100 100 99 90 80 69 86 57
58 49 42 40 44 45 49 49 52 52 51 51 51 54 58 61 68 67 56 50 63 89 100 100 100 100 98 92 76 73 83 91
65 52 58 48 48 50 56 55 53 53 53 53 53 53 53 58 63 70 68 69 89 92 98 100 100 100 100 97 84 83 90 99
99 84 66 64 62 58 56 54 55 57 58 60 67 68 69 69 74 75 82 88 98 100 100 100 100 99 99 96 97 91 95 96
99 100 85 71 66 66 64 62 62 65 69 68 67 70 70 63 61 71 76 82 95 99 100 100 100 99 99 98 97 99 97 97
96 98 99 99 94 75 74 73 76 76 78 80 79 82 75 83 88 81 80 81 76 98 100 94 99 99 96 96 97 98 98 96
93 85 96 98 88 63 58 55 49 41 56 77 80 70 60 56 72 86 89 96 97 88 87 97 100 100 100 98 98 96 97 97
88 85 80 72 64 42 39 38 36 32 28 27 30 38 34 38 42 42 48 46 49 78 86 84 97 98 100 98 98 98 96 98

GFSFLT1_700_rhum_201.txt.gz
RH
35 33 36 36 33 33 34 36 30 31 45 48 40 38 44 42 33 31 33 30 33 51 56 62 65 70 82 93 83 60 49 45
35 34 33 34 36 35 35 35 34 35 36 30 27 23 27 31 38 39 35 42 30 34 51 53 52 54 69 92 89 65 53 54
32 32 33 33 34 35 34 34 35 36 37 36 22 21 22 24 22 25 40 41 43 44 47 40 43 60 61 68 84 76 67 60
33 34 33 32 33 34 35 34 35 41 42 46 44 37 26 30 24 22 30 39 42 51 54 44 45 67 57 68 73 75 74 61
35 34 34 35 34 36 35 36 36 36 43 47 45 44 31 22 22 22 22 44 41 43 47 46 51 64 65 64 65 74 74 65
36 35 34 34 37 37 38 38 37 39 40 42 44 46 46 32 26 24 23 36 48 47 54 47 47 57 64 67 67 63 68 65
40 35 36 35 36 38 38 39 41 41 43 44 45 47 43 44 34 26 25 27 52 50 51 50 50 59 64 72 74 67 73 67
36 35 34 33 35 36 37 40 43 45 46 46 47 49 51 48 39 34 28 25 30 56 57 57 54 58 65 78 85 81 78 70
35 30 33 35 34 36 36 38 42 45 48 50 53 57 59 59 49 40 37 36 28 44 68 68 66 65 68 73 85 91 88 74
38 36 40 39 38 39 36 38 42 52 58 64 65 64 60 60 45 42 41 42 34 41 74 85 73 82 77 83 94 100 97 83
49 44 40 46 46 43 40 39 45 48 64 75 72 56 45 50 46 44 40 36 38 56 86 97 99 98 100 100 100 98 96 90
73 58 49 44 51 47 41 38 40 45 52 54 54 53 51 46 47 46 48 49 60 87 100 100 100 98 100 100 100 99 98 99
83 81 62 54 49 43 36 33 35 38 45 44 52 51 52 68 72 59 53 63 78 87 99 100 100 100 100 100 100 100 98 98
96 97 84 80 66 72 59 63 48 46 47 52 54 53 54 60 80 99 97 98 97 93 98 100 100 100 100 100 100 99 99 99
80 100 100 99 92 95 75 88 86 61 54 56 56 60 60 79 89 99 100 100 100 99 100 100 100 100 100 100 100 99 99 97
51 90 99 100 100 98 89 81 87 74 63 61 61 67 74 80 89 96 96 99 96 98 100 100 100 99 100 100 99 99 98 97
39 73 91 99 99 99 99 99 92 80 74 76 74 74 76 79 84 85 92 98 100 100 100 100 100 100 100 99 98 99 99 100
51 75 83 95 60 55 96 95 94 88 88 88 93 96 98 99 100 99 94 94 96 95 97 96 94 81 88 99 97 99 100 98
83 96 92 82 73 75 67 78 88 86 75 70 80 86 90 84 72 56 77 74 79 71 64 67 81 83 97 100 100 98 97 97

GFSFLT1_700_rhum_204.txt.gz
RH
34 34 33 34 35 33 32 32 31 34 34 39 59 55 44 33 32 31 30 31 35 48 68 76 75 71 68 73 81 85 78 62
30 32 36 38 38 36 37 34 32 32 34 35 36 48 55 50 42 38 36 31 32 47 58 75 73 72 80 85 90 90 85 79
35 32 30 32 32 35 33 34 34 35 34 35 36 35 37 39 44 40 38 42 40 37 49 67 73 74 78 85 95 94 92 82
38 35 33 34 32 32 34 33 33 34 36 36 36 38 43 46 35 28 24 30 30 43 40 53 69 82 85 94 95 90 82 89
40 38 36 34 33 34 34 33 33 33 34 35 35 35 35 40 42 37 26 22 23 28 47 52 61 71 88 92 96 95 87 82
36 38 39 37 35 35 34 34 34 33 34 35 35 35 40 48 48 50 57 42 25 28 36 55 64 52 70 88 91 80 80 85
39 34 38 36 37 38 36 36 34 35 35 36 36 36 39 41 43 46 50 54 38 25 30 47 69 65 63 77 85 93 89 96
34 36 39 45 43 38 37 38 36 35 36 37 37 38 38 40 43 46 50 50 45 30 24 29 52 62 60 74 91 96 92 100
42 33 33 44 46 41 38 40 40 37 37 37 39 39 40 42 48 52 56 57 58 49 38 31 40 74 67 74 92 93 96 96
46 38 44 43 38 34 34 35 34 34 36 38 40 42 44 47 54 60 62 66 67 64 48 42 61 90 96 93 98 98 100 100
53 49 43 36 37 38 35 38 37 35 37 37 42 48 51 61 65 69 67 57 58 62 53 78 89 100 100 99 100 100 100 99
59 46 44 42 49 54 48 46 42 42 47 55 60 60 65 68 74 70 62 61 48 54 78 100 100 100 100 100 100 100 100 100
98 92 70 58 54 59 61 56 54 54 53 53 62 66 68 77 67 62 55 52 52 70 99 100 100 100 99 100 100 100 100 100
38 81 77 61 60 53 63 64 65 64 64 64 74 76 74 68 62 52 56 61 70 94 100 100 100 100 100 100 100 100 99 99
42 29 29 59 67 71 73 89 73 74 76 85 90 97 77 70 62 57 66 95 100 99 100 100 100 98 99 100 100 100 100 99
47 53 55 79 66 80 90 81 100 99 100 96 89 95 92 75 70 73 96 99 100 100 100 100 99 98 99 100 99 99 100 100
52 56 51 85 70 75 71 78 87 99 100 99 100 100 100 90 96 100 100 100 100 100 100 100 99 100 100 100 99 99 99 98
63 57 62 98 96 79 72 76 78 95 92 96 98 99 100 99 100 100 100 100 100 99 100 100 100 99 100 100 99 97 99 100
75 80 79 100 100 98 87 77 80 100 83 92 96 98 98 99 100 100 100 99 93 90 87 89 90 97 92 94 98 100 100 100

GFSFLT1_700_rhum_207.txt.gz
RH
35 39 40 39 30 36 37 36 36 35 35 33 36 38 57 47 36 26 25 25 31 39 62 76 74 70 67 65 67 70 72 71
38 40 39 39 40 34 32 33 34 39 41 37 33 35 36 56 56 42 34 27 27 31 42 72 74 68 69 70 71 76 78 78
36 40 39 37 38 32 34 34 36 38 40 39 36 32 35 36 38 50 56 44 34 32 36 52 66 69 72 71 75 79 82 82
35 36 39 37 36 36 34 31 32 32 33 34 36 38 36 36 38 38 39 44 50 44 38 41 57 61 69 78 78 79 84 88
36 38 39 41 39 36 34 33 33 32 34 34 33 34 34 34 35 36 37 39 40 39 42 45 50 54 64 71 86 89 92 92
37 34 38 39 39 39 37 37 35 33 33 34 33 33 34 36 36 37 37 41 46 47 36 35 48 53 55 64 75 87 91 99
44 46 43 38 38 38 40 39 38 38 36 35 34 34 34 34 36 36 36 41 50 53 57 60 47 38 48 54 60 76 94 97
45 39 35 36 41 44 40 37 38 40 38 37 36 36 35 35 35 36 36 41 44 47 54 62 57 45 37 47 67 79 86 99
52 49 43 38 29 36 47 47 45 43 40 38 38 38 36 36 35 37 37 40 43 51 62 67 68 71 58 63 82 94 95 96
63 59 56 48 38 32 33 34 40 44 43 39 38 38 38 37 37 37 38 40 51 63 67 66 66 79 78 94 93 98 100 100
50 52 54 50 38 32 38 50 48 44 39 37 38 39 39 40 40 39 40 40 58 69 70 74 70 78 96 100 100 99 100 100
63 79 63 55 51 48 46 42 42 45 40 40 41 41 42 42 44 43 45 52 73 78 82 82 66 88 99 100 98 99 99 100
48 32 83 81 62 49 50 49 42 42 44 46 43 46 52 61 72 77 71 78 84 88 94 86 80 98 100 100 100 99 97 89
37 44 32 30 80 82 72 69 68 61 54 54 56 56 61 70 68 80 94 93 92 88 78 73 99 100 99 99 100 99 100 100
56 40 34 24 20 43 36 35 80 65 65 64 67 67 72 73 88 97 96 100 91 86 70 89 99 100 99 99 97 99 100 100
26 25 28 32 22 20 27 63 76 85 65 72 87 81 85 84 98 100 98 99 100 100 91 100 98 99 100 100 98 100 100 100
36 26 23 27 29 24 58 66 87 99 100 92 85 93 98 96 100 100 95 98 99 98 92 98 97 100 100 99 99 99 99 98
40 38 34 43 40 51 63 90 92 99 95 79 78 96 98 100 99 98 99 100 98 100 100 99 100 99 98 100 100 99 100 100
38 45 49 66 67 70 99 99 91 81 80 80 89 99 98 100 100 99 98 99 100 100 100 99 99 98 98 99 99 100 100 99